SCP
0 0 0 0 0 0 0 0 0 0 0 0 0 0 0 -0 0 -0 0 0 0 0 0 0 0 -0 -0 -0 -0 -0 0 0 0
0 0 0 0 0 0 0 0 0 0 0 0 0 0 0 0 0 0 0 -0 0 -0 -0 0 0 0 0 -0 -0 0 0 0 0
0 0 0 0 0 0 0 0 0 1 0 0 0 0 0 0 0 0 0 0 0 0 -0 0 0 0 0 0 0 0 0 0 0
0 0 0 0 0 0 0 0 0 0 0 0 0 0 0 0 0 0 0 0 0 0 0 0 0 0 0 0 0 0 0 0 0
0 0 0 0 0 0 0 0 0 0 0 0 0 0 0 0 0 0 0 0 0 0 0 0 0 0 0 0 0 0 0 0 0
0 0 0 0 0 0 0 0 0 0 0 0 0 0 0 0 0 0 0 0 0 0 0 0 0 0 0 0 0 0 0 0 0
0 0 0 0 0 0 0 0 0 0 0 0 0 0 0 0 0 0 0 0 0 0 0 0 0 0 0 0 0 0 0 0 0
0 0 0 0 0 0 0 0 0 0 0 0 0 -0 0 0 0 0 0 0 0 0 0 0 0 0 0 0 0 0 0 0 0
0 0 0 0 0 0 0 0 0 0 0 0 0 0 0 0 0 0 0 0 0 0 0 0 0 0 0 0 0 0 0 0 0
0 0 0 0 0 0 0 0 0 0 0 0 0 0 0 0 0 0 0 0 0 0 0 0 0 0 0 0 0 0 0 0 0
0 0 0 0 0 0 0 0 0 0 0 0 0 0 0 0 0 0 0 0 0 0 0 0 0 0 0 0 0 0 0 0 0
0 0 0 0 0 0 0 0 0 0 0 0 0 0 0 0 0 0 0 0 0 0 0 0 0 0 0 0 0 0 0 0 0
0 0 0 0 0 0 0 0 0 0 0 0 0 0 0 0 0 0 0 0 0 0 0 0 0 0 0 0 0 0 0 0 0
0 0 0 0 0 0 0 0 0 0 0 0 0 0 0 0 0 0 0 0 0 0 0 0 0 0 0 0 0 0 0 0 0
0 0 0 0 0 0 0 0 0 0 0 0 0 0 0 0 0 0 0 0 0 0 0 0 0 0 0 0 0 0 0 0 0
0 0 0 0 0 0 0 0 0 0 0 0 0 0 0 0 0 0 0 0 0 0 0 0 0 0 0 0 0 0 0 0 0
0 0 0 0 0 0 0 0 0 0 0 0 0 0 0 0 0 0 0 0 0 0 0 0 0 0 0 0 0 0 0 0 0
0 0 0 0 0 0 0 0 0 0 0 0 0 0 0 0 0 0 0 0 0 0 0 0 0 0 0 0 0 0 0 0 0
0 0 0 0 0 0 0 0 0 0 0 0 0 0 0 0 0 0 0 0 0 0 0 0 0 0 0 0 0 0 0 0 0
0 0 0 0 0 0 0 0 0 0 0 0 0 0 0 0 0 0 0 0 0 0 0 0 0 0 0 0 0 0 0 0 0
Wind_Speed_500mb
56 37 14 26 32 62 73 67 56 54 49 52 50 50 40 33 26 32 26 23 28 31 26 23 24 25 25 25 29 24 27 25 23
38 46 24 30 35 46 70 75 67 57 49 48 49 51 41 32 25 25 25 30 26 26 29 27 26 22 21 24 28 31 28 27 25
27 27 24 32 50 59 54 76 71 66 52 46 50 54 45 36 31 26 19 32 28 29 26 26 26 21 20 20 24 28 30 27 28
26 28 24 32 46 54 70 71 71 66 49 47 51 54 45 39 35 32 27 32 32 27 25 22 26 26 29 31 26 27 25 25 25
26 24 19 24 22 66 59 62 74 58 46 45 52 50 46 41 39 37 36 37 35 29 24 25 16 16 18 26 28 29 23 22 21
24 20 16 23 19 47 54 47 41 36 46 54 56 47 41 40 40 45 42 38 34 34 29 26 24 20 20 23 24 25 23 19 19
28 26 21 20 25 29 33 37 24 33 48 53 51 26 28 40 40 44 50 48 39 35 34 32 29 29 29 27 29 25 24 22 20
24 28 29 26 22 31 37 37 40 43 43 45 23 43 38 29 28 35 44 47 42 37 37 37 36 32 30 34 33 34 31 30 31
27 27 33 33 28 25 31 32 35 33 31 37 35 31 27 22 14 11 21 39 34 32 35 37 37 41 38 32 35 37 36 35 36
42 36 39 40 39 38 38 36 36 34 34 32 28 21 17 14 14 13 9 8 17 26 32 37 36 41 41 43 40 42 43 42 41
56 51 44 42 42 44 46 44 41 40 36 32 26 19 13 8 5 6 14 18 16 14 20 38 39 43 46 46 46 50 52 51 50
65 55 48 42 38 35 33 33 33 29 28 24 23 23 18 16 13 9 5 3 14 11 17 16 22 27 30 35 44 54 59 61 61
59 51 45 40 32 27 24 23 15 12 15 13 13 12 11 9 8 8 11 11 7 4 3 2 8 24 34 43 44 38 32 38 48
54 48 45 36 29 25 20 16 10 6 5 4 4 1 2 2 4 5 2 3 3 4 5 3 2 4 2 1 4 10 11 12 18
61 54 45 34 29 23 17 10 4 1 3 5 7 9 11 10 11 13 13 11 11 11 9 8 11 15 15 8 3 6 12 15 16
57 48 40 30 22 17 11 3 4 6 7 11 13 13 14 13 15 16 17 17 15 14 17 17 16 16 15 13 15 14 15 16 18
47 38 33 26 17 8 1 6 10 12 12 10 10 10 10 10 12 15 18 18 19 19 20 19 19 20 21 20 21 24 25 25 26
52 42 32 21 12 5 3 8 10 12 11 10 9 9 9 8 9 12 14 14 16 16 15 19 20 21 23 26 27 26 26 34 35
50 42 34 25 13 5 6 9 11 8 7 7 6 6 7 9 8 8 11 14 11 15 17 19 23 26 31 27 28 34 34 36 39
48 41 33 23 12 10 11 14 13 9 9 11 10 9 9 9 12 15 18 19 22 22 14 19 22 25 27 32 37 41 43 45 47
Wind_Direction_500mb
195 217 252 200 205 210 207 206 209 207 207 209 212 208 210 209 214 221 222 205 204 203 202 204 201 203 210 211 214 219 228 233 235
186 221 240 227 236 212 210 217 213 210 208 209 215 211 213 214 217 208 224 205 205 208 207 210 210 210 205 211 218 224 231 235 236
150 183 232 254 237 208 226 224 217 214 208 210 213 214 217 215 213 212 216 209 217 208 207 215 216 224 232 225 223 219 225 230 235
157 174 195 196 212 217 225 226 218 217 206 211 212 214 220 225 218 213 208 208 213 216 224 224 232 244 250 245 246 227 222 225 237
154 193 192 219 195 189 199 212 216 211 204 210 212 212 224 231 236 230 225 217 220 228 232 233 240 246 236 236 240 227 228 222 231
151 157 184 220 202 193 206 212 219 211 209 204 208 202 216 229 237 244 238 233 228 235 237 238 237 244 237 238 231 224 232 235 243
155 148 162 181 203 196 192 196 205 213 229 208 193 154 263 247 246 245 237 234 231 233 235 243 252 254 250 248 235 233 243 246 249
138 131 135 145 160 186 194 184 183 181 180 174 129 202 246 257 265 253 236 226 230 240 241 240 243 255 259 251 248 241 248 253 256
130 117 110 111 122 141 160 176 184 179 175 169 181 199 211 216 218 204 198 211 217 234 247 252 250 248 250 254 250 256 259 256 256
135 129 120 114 107 110 118 131 140 146 152 156 156 174 181 196 199 196 189 237 255 257 256 249 249 251 253 254 249 249 249 249 252
138 137 130 125 121 112 116 119 122 126 127 131 134 129 123 129 148 171 179 208 235 285 282 258 263 260 255 247 252 255 258 258 258
146 140 134 129 132 129 132 130 123 121 120 119 121 115 109 103 93 91 122 234 233 248 251 264 271 282 285 276 259 253 255 255 255
143 143 142 143 142 139 139 130 127 122 116 110 103 96 96 92 80 78 83 80 85 76 128 162 283 253 270 278 280 288 284 280 270
154 156 151 149 147 150 153 154 166 171 130 133 94 39 263 257 288 303 321 332 325 5 23 360 315 329 345 294 354 340 320 299 302
158 159 160 163 160 156 148 147 156 203 295 320 298 293 293 288 274 272 277 267 262 257 250 227 216 216 219 226 160 7 343 338 299
165 166 164 164 169 160 149 115 354 334 332 316 313 310 303 296 287 277 268 256 251 244 245 242 239 242 243 227 237 256 293 309 308
165 170 171 171 169 168 182 337 332 337 339 331 321 319 313 297 281 273 271 272 269 264 265 264 266 270 274 274 273 275 277 276 283
178 174 173 176 174 174 315 315 315 323 326 329 330 325 320 299 284 278 276 282 277 270 279 286 286 285 287 289 288 288 290 291 290
180 183 187 185 197 245 305 297 297 295 305 316 315 309 307 308 307 300 291 286 266 287 285 275 276 280 280 274 282 281 280 278 279
195 195 198 207 225 256 289 276 267 273 292 312 314 310 311 314 317 321 325 323 317 306 285 294 282 276 275 277 276 273 274 273 274
Wind_Speed_850mb
56 37 14 26 32 62 73 67 56 54 49 52 50 50 40 33 26 32 26 23 28 31 26 23 24 25 25 25 29 24 27 25 23
38 46 24 30 35 46 70 75 67 57 49 48 49 51 41 32 25 25 25 30 26 26 29 27 26 22 21 24 28 31 28 27 25
27 27 24 32 50 59 54 76 71 66 52 46 50 54 45 36 31 26 19 32 28 29 26 26 26 21 20 20 24 28 30 27 28
26 28 24 32 46 54 70 71 71 66 49 47 51 54 45 39 35 32 27 32 32 27 25 22 26 26 29 31 26 27 25 25 25
26 24 19 24 22 66 59 62 74 58 46 45 52 50 46 41 39 37 36 37 35 29 24 25 16 16 18 26 28 29 23 22 21
24 20 16 23 19 47 54 47 41 36 46 54 56 47 41 40 40 45 42 38 34 34 29 26 24 20 20 23 24 25 23 19 19
28 26 21 20 25 29 33 37 24 33 48 53 51 26 28 40 40 44 50 48 39 35 34 32 29 29 29 27 29 25 24 22 20
24 28 29 26 22 31 37 37 40 43 43 45 23 43 38 29 28 35 44 47 42 37 37 37 36 32 30 34 33 34 31 30 31
27 27 33 33 28 25 31 32 35 33 31 37 35 31 27 22 14 11 21 39 34 32 35 37 37 41 38 32 35 37 36 35 36
42 36 39 40 39 38 38 36 36 34 34 32 28 21 17 14 14 13 9 8 17 26 32 37 36 41 41 43 40 42 43 42 41
56 51 44 42 42 44 46 44 41 40 36 32 26 19 13 8 5 6 14 18 16 14 20 38 39 43 46 46 46 50 52 51 50
65 55 48 42 38 35 33 33 33 29 28 24 23 23 18 16 13 9 5 3 14 11 17 16 22 27 30 35 44 54 59 61 61
59 51 45 40 32 27 24 23 15 12 15 13 13 12 11 9 8 8 11 11 7 4 3 2 8 24 34 43 44 38 32 38 48
54 48 45 36 29 25 20 16 10 6 5 4 4 1 2 2 4 5 2 3 3 4 5 3 2 4 2 1 4 10 11 12 18
61 54 45 34 29 23 17 10 4 1 3 5 7 9 11 10 11 13 13 11 11 11 9 8 11 15 15 8 3 6 12 15 16
57 48 40 30 22 17 11 3 4 6 7 11 13 13 14 13 15 16 17 17 15 14 17 17 16 16 15 13 15 14 15 16 18
47 38 33 26 17 8 1 6 10 12 12 10 10 10 10 10 12 15 18 18 19 19 20 19 19 20 21 20 21 24 25 25 26
52 42 32 21 12 5 3 8 10 12 11 10 9 9 9 8 9 12 14 14 16 16 15 19 20 21 23 26 27 26 26 34 35
50 42 34 25 13 5 6 9 11 8 7 7 6 6 7 9 8 8 11 14 11 15 17 19 23 26 31 27 28 34 34 36 39
48 41 33 23 12 10 11 14 13 9 9 11 10 9 9 9 12 15 18 19 22 22 14 19 22 25 27 32 37 41 43 45 47
Wind_Direction_850mb
195 217 252 200 205 210 207 206 209 207 207 209 212 208 210 209 214 221 222 205 204 203 202 204 201 203 210 211 214 219 228 233 235
186 221 240 227 236 212 210 217 213 210 208 209 215 211 213 214 217 208 224 205 205 208 207 210 210 210 205 211 218 224 231 235 236
150 183 232 254 237 208 226 224 217 214 208 210 213 214 217 215 213 212 216 209 217 208 207 215 216 224 232 225 223 219 225 230 235
157 174 195 196 212 217 225 226 218 217 206 211 212 214 220 225 218 213 208 208 213 216 224 224 232 244 250 245 246 227 222 225 237
154 193 192 219 195 189 199 212 216 211 204 210 212 212 224 231 236 230 225 217 220 228 232 233 240 246 236 236 240 227 228 222 231
151 157 184 220 202 193 206 212 219 211 209 204 208 202 216 229 237 244 238 233 228 235 237 238 237 244 237 238 231 224 232 235 243
155 148 162 181 203 196 192 196 205 213 229 208 193 154 263 247 246 245 237 234 231 233 235 243 252 254 250 248 235 233 243 246 249
138 131 135 145 160 186 194 184 183 181 180 174 129 202 246 257 265 253 236 226 230 240 241 240 243 255 259 251 248 241 248 253 256
130 117 110 111 122 141 160 176 184 179 175 169 181 199 211 216 218 204 198 211 217 234 247 252 250 248 250 254 250 256 259 256 256
135 129 120 114 107 110 118 131 140 146 152 156 156 174 181 196 199 196 189 237 255 257 256 249 249 251 253 254 249 249 249 249 252
138 137 130 125 121 112 116 119 122 126 127 131 134 129 123 129 148 171 179 208 235 285 282 258 263 260 255 247 252 255 258 258 258
146 140 134 129 132 129 132 130 123 121 120 119 121 115 109 103 93 91 122 234 233 248 251 264 271 282 285 276 259 253 255 255 255
143 143 142 143 142 139 139 130 127 122 116 110 103 96 96 92 80 78 83 80 85 76 128 162 283 253 270 278 280 288 284 280 270
154 156 151 149 147 150 153 154 166 171 130 133 94 39 263 257 288 303 321 332 325 5 23 360 315 329 345 294 354 340 320 299 302
158 159 160 163 160 156 148 147 156 203 295 320 298 293 293 288 274 272 277 267 262 257 250 227 216 216 219 226 160 7 343 338 299
165 166 164 164 169 160 149 115 354 334 332 316 313 310 303 296 287 277 268 256 251 244 245 242 239 242 243 227 237 256 293 309 308
165 170 171 171 169 168 182 337 332 337 339 331 321 319 313 297 281 273 271 272 269 264 265 264 266 270 274 274 273 275 277 276 283
178 174 173 176 174 174 315 315 315 323 326 329 330 325 320 299 284 278 276 282 277 270 279 286 286 285 287 289 288 288 290 291 290
180 183 187 185 197 245 305 297 297 295 305 316 315 309 307 308 307 300 291 286 266 287 285 275 276 280 280 274 282 281 280 278 279
195 195 198 207 225 256 289 276 267 273 292 312 314 310 311 314 317 321 325 323 317 306 285 294 282 276 275 277 276 273 274 273 274